Simultaneous Nadir Overpasses (SNOs) Predictions

Prediction of SNOs between METOP-B and NOAA-19 Satellite Orbit:

Table of predicted SNOs for the next 14.0 days since TLE Epoch: 10/19/2018
Index Date (METOP-B) Time (METOP-B) Lat,Lon (METOP-B) SZA (METOP-B ) Date (NOAA-19) Time (NOAA-19) Lat,Lon (NOAA-19) SZA (NOAA-19 ) Distance(km) Time Diff (sec)
1 10/26/2018 05:19:02 78.77, 112.21 91.56 10/26/2018 05:17:55 78.77, 112.08 91.53 2.94 67
2 10/26/2018 06:09:44 -78.75, -80.60 88.46 10/26/2018 06:08:59 -78.75, -80.52 88.48 1.86 45
3 10/26/2018 07:00:24 78.76, 86.77 91.56 10/26/2018 06:59:55 78.73, 86.83 91.53 3.18 29
4 10/26/2018 07:51:06 -78.74,-106.04 88.46 10/26/2018 07:51:00 -78.74,-106.02 88.45 1.02 6
5 10/26/2018 08:41:46 78.74, 61.32 91.56 10/26/2018 08:41:56 78.73, 61.34 91.56 1.19 10
6 10/26/2018 09:32:28 -78.72,-131.49 88.46 10/26/2018 09:33:01 -78.74,-131.52 88.43 2.69 33
7 10/26/2018 10:23:08 78.73, 35.88 91.57 10/26/2018 10:23:57 78.73, 35.85 91.58 0.94 49
8 10/26/2018 11:13:49 -78.70,-156.93 88.45 10/26/2018 11:15:00 -78.71,-156.77 88.42 3.59 71




NCC Satellite Simultaneous Nadir Overpasses (SNOs) Prediction Service
